Location: Écuvilly
(49.6505°N, 2.9206°E)
Time: 18:22:23
(UTC+00:00)

Cosmos 1072 Rocket - Pass Details

Date: 17 November 2025
Orbit: 947 x 1008 km, 82.9° (Epoch: 10 December)

Event Time Altitude Azimuth Distance (km) Brightness Sun altitude
Rises 17:49:11 0° 179° (S) 3,637 7.6 -17.0°
Reaches altitude 10° 17:51:41 10° 177° (S) 2,687 6.9 -17.4°
Maximum altitude 17:57:46 70° 95° (E) 1,015 4.3 -18.4°
Drops below altitude 10° 18:03:51 10° 13° (NNE) 2,683 6.6 -19.3°
Sets 18:06:21 0° 12° (NNE) 3,631 7.3 -19.8°
